Alliance, NE

3:49 AM MDT on May 25, 2018 (GMT -0600)
Alliance Municipal

Weather History for KAIA - May, 2013

Change the Weather History Date:

Sunday, May 19, 2013

  Actual Average Record
Temperature  
Mean Temperature 57 °F 56 °F  
Max Temperature 64 °F 71 °F 93 °F (2009)
Min Temperature 49 °F 40 °F 23 °F (1997)
Degree Days  
Heating Degree Days 8 9  
Month to date heating degree days 218 237  
Since 1 July heating degree days 7048 7126  
Cooling Degree Days 0 0  
Month to date cooling degree days 16 0  
Year to date cooling degree days 16 0  
Growing Degree Days 7 (Base 50)    
Moisture  
Dew Point 50 °F    
Average Humidity 84    
Maximum Humidity 100    
Minimum Humidity 67    
Precipitation  
Precipitation 0.54 in 0.08 in 1.54 in (1957)
Month to date precipitation 1.49 1.43  
Year to date precipitation 4.31 4.29  
Sea Level Pressure  
Sea Level Pressure 29.71 in    
Wind  
Wind Speed 10 mph (NW)    
Max Wind Speed 28 mph    
Max Gust Speed 35 mph    
Visibility 9 miles    
Events Rain , Thunderstorm    
T = Trace of Precipitation, MM = Missing Value Source: NWS Daily Summary

Daily Weather History Graph

Daily Weather History Graph

Search for Another Location

Airport or City:

Astronomy

May. 19, 2013 Rise Set
Actual Time 5:26 AM MDT 8:09 PM MDT
Civil Twilight 4:54 AM MDT 8:41 PM MDT
Nautical Twilight 4:13 AM MDT 9:22 PM MDT
Astronomical Twilight 3:27 AM MDT 10:09 PM MDT
Moon 2:10 PM MDT (5/19) 1:57 AM MDT (5/19)
Length of Visible Light 15h 47m
Length of Day
14h 42m
Waxing Gibbous, 66% of the Moon is Illuminated
May 19
Waxing Gibbous
May 24
Full
May 31
Last Quarter
Jun 8
New
Jun 16
First Quarter

Hourly Weather History & Observations

Time (MDT) Temp. Dew Point Humidity Pressure Visibility Wind Dir Wind Speed Gust Speed Precip Events Conditions
12:53 AM 50.0 °F 48.9 °F 96% 29.67 in 10.0 mi SSW 6.9 mph - N/A   Clear
1:53 AM 50.0 °F 48.9 °F 96% 29.68 in 10.0 mi South 6.9 mph - N/A   Clear
2:53 AM 50.0 °F 48.0 °F 93% 29.70 in 10.0 mi WSW 4.6 mph - N/A   Clear
3:53 AM 52.0 °F 50.0 °F 93% 29.68 in 10.0 mi WNW 6.9 mph - N/A   Clear
4:53 AM 52.0 °F 48.9 °F 89% 29.68 in 10.0 mi Calm Calm - N/A   Clear
5:53 AM 51.8 °F 48.2 °F 88% 29.76 in 10.0 mi NW 9.2 mph - N/A   Partly Cloudy
6:24 AM 53.6 °F 50.0 °F 88% 29.77 in 10.0 mi NNW 8.1 mph - N/A   Mostly Cloudy
6:53 AM 54.0 °F 50.0 °F 86% 29.69 in 10.0 mi NNW 8.1 mph - N/A   Overcast
7:26 AM 53.6 °F 51.8 °F 94% 29.75 in 10.0 mi NNW 8.1 mph - N/A   Overcast
7:35 AM 53.6 °F 51.8 °F 94% 29.75 in 10.0 mi NNW 9.2 mph - N/A   Overcast
7:53 AM 54.0 °F 51.1 °F 90% 29.68 in 10.0 mi NNW 8.1 mph - N/A   Overcast
8:53 AM 57.0 °F 52.0 °F 83% 29.68 in 10.0 mi North 11.5 mph - N/A   Overcast
9:29 AM 57.2 °F 50.0 °F 77% 29.75 in 10.0 mi North 6.9 mph - N/A   Overcast
9:53 AM 57.9 °F 51.1 °F 78% 29.68 in 10.0 mi NNE 3.5 mph - N/A   Overcast
10:46 AM 62.6 °F 51.8 °F 68% 29.73 in 10.0 mi North 10.4 mph - N/A   Mostly Cloudy
10:53 AM 64.0 °F 52.0 °F 65% 29.65 in 10.0 mi North 11.5 mph - N/A Thunderstorm Mostly Cloudy
11:09 AM 57.2 °F 50.0 °F 77% 29.73 in 10.0 mi NNW 17.3 mph 34.5 mph 0.01 in Thunderstorm Mostly Cloudy
11:20 AM 57.2 °F 50.0 °F 77% 29.73 in 10.0 mi NNW 13.8 mph - 0.01 in   Overcast
11:30 AM 55.4 °F 50.0 °F 82% 29.73 in 10.0 mi North 18.4 mph 24.2 mph 0.01 in Rain , Thunderstorm Light Rain
11:53 AM 54.0 °F 50.0 °F 86% 29.68 in 6.0 mi NW 16.1 mph 25.3 mph 0.03 in Rain Light Rain
12:06 PM 53.6 °F 48.2 °F 82% 29.73 in 10.0 mi NW 17.3 mph 24.2 mph 0.00 in Rain Light Rain
12:53 PM 57.2 °F 48.2 °F 72% 29.71 in 10.0 mi WNW 24.2 mph 29.9 mph N/A   Overcast
1:53 PM 59.0 °F 48.2 °F 67% 29.69 in 10.0 mi WNW 20.7 mph 26.5 mph N/A   Overcast
2:53 PM 63.0 °F 51.1 °F 65% 29.62 in 10.0 mi WNW 20.7 mph 27.6 mph N/A   Mostly Cloudy
3:25 PM 53.6 °F 48.2 °F 82% 29.70 in 2.5 mi North 11.5 mph 26.5 mph 0.10 in Rain Heavy Rain
3:39 PM 55.4 °F 51.8 °F 88% 29.70 in 4.0 mi North 11.5 mph - 0.13 in Rain , Thunderstorm Light Rain
3:53 PM 55.9 °F 51.1 °F 84% 29.64 in 10.0 mi North 13.8 mph - 0.13 in   Overcast
4:32 PM 55.4 °F 51.8 °F 88% 29.72 in 10.0 mi NNW 13.8 mph - 0.00 in Rain Light Rain
4:53 PM 55.0 °F 51.1 °F 86% 29.66 in 10.0 mi NW 11.5 mph - 0.01 in Rain Light Rain
5:26 PM 53.6 °F 51.8 °F 94% 29.72 in 10.0 mi NW 11.5 mph - 0.03 in Rain Light Rain
5:53 PM 55.0 °F 51.1 °F 86% 29.66 in 10.0 mi WNW 13.8 mph 21.9 mph 0.04 in   Overcast
6:06 PM 53.6 °F 50.0 °F 88% 29.71 in 10.0 mi WNW 12.7 mph - 0.01 in Rain Light Rain
6:37 PM 53.6 °F 51.8 °F 94% 29.71 in 6.0 mi WNW 15.0 mph - 0.06 in Rain Light Rain
6:53 PM 53.1 °F 51.1 °F 93% 29.66 in 10.0 mi WNW 16.1 mph - 0.07 in Rain Light Rain
7:34 PM 53.6 °F 51.8 °F 94% 29.73 in 10.0 mi NW 12.7 mph - 0.01 in Rain Light Rain
7:44 PM 53.6 °F 51.8 °F 94% 29.73 in 10.0 mi NW 10.4 mph - 0.01 in Rain Light Rain
7:53 PM 53.1 °F 51.1 °F 93% 29.68 in 10.0 mi NW 10.4 mph - 0.01 in Rain Light Rain
8:41 PM 53.6 °F 51.8 °F 94% 29.74 in 10.0 mi NW 8.1 mph - 0.00 in   Overcast
8:53 PM 53.1 °F 51.1 °F 93% 29.68 in 9.0 mi NW 6.9 mph - 0.00 in Rain Light Rain
9:06 PM 53.6 °F 51.8 °F 94% 29.74 in 10.0 mi NW 6.9 mph - 0.00 in Rain Light Rain
9:46 PM 51.8 °F 50.0 °F 94% 29.75 in 6.0 mi NW 8.1 mph - 0.05 in Rain Rain
9:53 PM 52.0 °F 50.0 °F 93% 29.69 in 8.0 mi NW 8.1 mph - 0.05 in Rain Light Rain
10:11 PM 51.8 °F 50.0 °F 94% 29.75 in 10.0 mi NW 8.1 mph - 0.01 in Rain Light Rain
10:40 PM 51.8 °F 51.8 °F 100% 29.74 in 6.0 mi NNW 4.6 mph - 0.03 in Rain Light Rain
10:53 PM 52.0 °F 51.1 °F 97% 29.67 in 6.0 mi Calm Calm - 0.04 in Rain Light Rain
11:00 PM 51.8 °F 51.8 °F 100% 29.74 in 4.0 mi Calm Calm - 0.02 in Rain Rain
11:17 PM 51.8 °F 50.0 °F 94% 29.74 in 2.5 mi North 10.4 mph - 0.11 in Rain Heavy Rain
11:28 PM 51.8 °F 50.0 °F 94% 29.74 in 3.0 mi NNE 9.2 mph - 0.15 in Rain Light Rain
11:53 PM 51.1 °F 48.9 °F 92% 29.69 in 10.0 mi North 11.5 mph - 0.16 in Rain Light Rain